sat.trackr.live / text

‹ back to catalog

COSMOS 2608

NORAD 67682 · 2026-023J

PAYLOAD ACTIVE UNKNOWN

§ Identity

Operator
Country
CIS
Launch date
2026-02-05
Launch site
PLMSC
Launch vehicle
Mass (kg)
RCS (m²)

External: N2YO · Heavens-Above · Gunter

§ Orbital elements

Epoch: 2026-09-20T21:17:56.714208Z

Period
94.30 min
Inclination
96.6162°
Eccentricity
0.0021696
Mean motion
15.26964918 rev/d
Perigee alt
470.0 km
Apogee alt
499.8 km
Semi-major
6,863.0 km
B*
2.7383e-4
RAAN
317.0737°
Arg perigee
132.1999°
Mean anomaly
228.1088°
Rev number
3,459

§ Raw data

COSMOS 26081 67682U 26023J   26263.88746197  .00007237  00000+0  27383-3 0  99952 67682  96.6162 317.0737 0021696 132.1999 228.1088 15.26964918 34598

JSON: /api/v1/satellites/67682 · /tle

For live sub-satellite position, see the globe view (requires WebGL).

§ Visibility from observer

Set your observer location to see the next 7 days of passes ≥ 10°. The values pass through the URL so the page stays shareable.

No JS? Fill the form by hand. The geolocation button needs JavaScript.